This is the latest recevied weather packets stored in our database for station/object K4AGR-13. If no packets are shown the sender has not sent any weather packets the latest 10 day(s).
| Time | Temp. | Humidity | Pressure | Rain* | Wind** | Luminosity | Snow |
|---|---|---|---|---|---|---|---|
| 1777715465 | 12.78° C | 96% | 1011.3 hPa | 4.83 mm | - | 0 W/m² | - |
| 1777714860 | 13.33° C | 96% | 1010.6 hPa | 1.27 mm | - | 0 W/m² | - |
| 1777714558 | 13.33° C | 96% | 1010.7 hPa | 0 mm | - | 0 W/m² | - |
| 1777714255 | 13.33° C | 96% | 1010.3 hPa | 1.78 mm | - | 0 W/m² | - |
| 1777713953 | 12.78° C | 96% | 1010.2 hPa | 1.78 mm | - | 0 W/m² | - |
| 1777713650 | 13.33° C | 96% | 1009.9 hPa | 0 mm | - | 0 W/m² | - |
| 1777713347 | 12.78° C | 96% | 1010.2 hPa | 0 mm | - | 0 W/m² | - |
| 1777713044 | 12.78° C | 96% | 1010 hPa | 1.27 mm | - | 0 W/m² | - |
| 1777712741 | 13.33° C | 96% | 1009 hPa | 7.11 mm | - | 0 W/m² | - |
| 1777712438 | 13.33° C | 96% | 1009.6 hPa | 7.87 mm | - | 0 W/m² | - |
| 1777712134 | 13.33° C | 96% | 1010.6 hPa | 3.05 mm | - | 0 W/m² | - |
| 1777711831 | 13.33° C | 96% | 1010.6 hPa | 1.27 mm | - | 0 W/m² | - |
| 1777711528 | 13.33° C | 96% | 1010.5 hPa | 3.05 mm | - | 0 W/m² | - |
| 1777711223 | 13.33° C | 97% | 1010.5 hPa | 1.78 mm | - | 0 W/m² | - |
| 1777710921 | 13.33° C | 97% | 1010.2 hPa | 4.83 mm | - | 0 W/m² | - |
| 1777710617 | 13.33° C | 97% | 1010.1 hPa | 4.83 mm | - | 0 W/m² | - |
| 1777710314 | 13.89° C | 97% | 1010.4 hPa | 3.05 mm | - | 0 W/m² | - |
| 1777710011 | 13.89° C | 97% | 1010.6 hPa | 1.27 mm | - | 0 W/m² | - |
| 1777709709 | 13.89° C | 97% | 1010.8 hPa | 1.78 mm | - | 0 W/m² | - |
| 1777709405 | 13.89° C | 97% | 1010.4 hPa | 1.78 mm | - | 0 W/m² | - |
| 1777709103 | 13.89° C | 97% | 1010.3 hPa | 1.27 mm | - | 0 W/m² | - |
| 1777708800 | 13.89° C | 97% | 1010.3 hPa | 3.05 mm | - | 0 W/m² | - |
| 1777708497 | 13.89° C | 97% | 1010.5 hPa | 6.1 mm | - | 0 W/m² | - |
| 1777708196 | 13.89° C | 97% | 1010.9 hPa | 6.1 mm | - | 0 W/m² | - |
| 1777707589 | 13.89° C | 97% | 1011.1 hPa | 3.05 mm | - | 0 W/m² | - |
* Rain latest hour (hover to see other rain measurements)
** Current wind speed in m/s (hover to see current wind gust speed)